When you browse on this site, cookies collect data to enhance your experience and personalize the content and advertising you see.
Visit our Privacy Policy to learn more. By continuing to use the site, you agree to this use of cookies and data.
  • In Sweden
  • List of Countries
  • For 7 days
  • Water Temperature
  • Weather Map
  • Weather Widgets
  • user-avatar
    Login

    Hourly Weather Maceio

    Today, 21 August, Wednesday

    Time Temperature Precipitation Wind Pressure Humidity
    00:00 +22°C° 0 mm 3 mps 763 mmHg 87%
    01:00 +21°C° 0 mm 3 mps 763 mmHg 88%
    02:00 +21°C° 0 mm 3 mps 763 mmHg 88%
    03:00 +21°C° 0 mm 3 mps 763 mmHg 88%
    04:00 +21°C° 0 mm 3 mps 762 mmHg 88%
    05:00 +21°C° 0 mm 3 mps 763 mmHg 89%
    06:00 +21°C° 0 mm 3 mps 763 mmHg 90%
    07:00 +21°C° 0 mm 3 mps 763 mmHg 91%
    08:00 +24°C° 0 mm 3 mps 763 mmHg 83%
    09:00 +26°C° 0 mm 3 mps 763 mmHg 74%
    10:00 +28°C° 0 mm 3 mps 764 mmHg 66%
    11:00 +29°C° 0 mm 3 mps 763 mmHg 64%
    12:00 +29°C° 0 mm 3 mps 763 mmHg 61%
    13:00 +30°C° 0 mm 3 mps 763 mmHg 59%
    14:00 +29°C° 0 mm 3 mps 762 mmHg 60%
    15:00 +29°C° 0 mm 3 mps 762 mmHg 61%
    16:00 +29°C° 0 mm 3 mps 761 mmHg 62%
    17:00 +27°C° 0 mm 3 mps 762 mmHg 69%
    18:00 +25°C° 0 mm 3 mps 762 mmHg 75%
    19:00 +24°C° 0 mm 3 mps 762 mmHg 81%
    20:00 +22°C° 0 mm 3 mps 762 mmHg 82%
    21:00 +22°C° 0 mm 3 mps 763 mmHg 84%
    22:00 +22°C° 0 mm 3 mps 763 mmHg 85%
    23:00 +22°C° 0 mm 3 mps 763 mmHg 86%

    Tomorrow, 22 August, Thursday

    Time Temperature Precipitation Wind Pressure Humidity
    00:00 +21°C° 0 mm 3 mps 763 mmHg 86%
    01:00 +21°C° 0 mm 2 mps 762 mmHg 87%
    02:00 +21°C° 0 mm 2 mps 762 mmHg 88%
    03:00 +21°C° 0 mm 2 mps 762 mmHg 90%
    04:00 +20°C° 0 mm 2 mps 762 mmHg 91%
    05:00 +20°C° 0 mm 2 mps 762 mmHg 91%
    06:00 +20°C° 0 mm 2 mps 762 mmHg 91%
    07:00 +20°C° 0 mm 2 mps 762 mmHg 91%
    08:00 +24°C° 0 mm 2 mps 763 mmHg 83%
    09:00 +26°C° 0 mm 2 mps 763 mmHg 75%
    10:00 +28°C° 0 mm 3 mps 763 mmHg 67%
    11:00 +29°C° 0.1 mm 3 mps 763 mmHg 65%
    12:00 +29°C° 0.1 mm 3 mps 763 mmHg 64%
    13:00 +30°C° 0.1 mm 4 mps 762 mmHg 62%
    14:00 +29°C° 0.2 mm 4 mps 762 mmHg 65%
    15:00 +29°C° 0.2 mm 4 mps 762 mmHg 68%
    16:00 +28°C° 0.2 mm 4 mps 761 mmHg 70%
    17:00 +27°C° 0.2 mm 4 mps 762 mmHg 77%
    18:00 +26°C° 0.2 mm 5 mps 762 mmHg 83%
    19:00 +23°C° 0.2 mm 5 mps 762 mmHg 90%
    20:00 +23°C° 0.3 mm 5 mps 763 mmHg 90%
    21:00 +23°C° 0.3 mm 6 mps 763 mmHg 90%
    22:00 +23°C° 0.3 mm 6 mps 763 mmHg 90%
    23:00 +23°C° 0.2 mm 6 mps 763 mmHg 90%

    Day after tomorrow, 23 August, Friday

    Time Temperature Precipitation Wind Pressure Humidity
    00:00 +23°C° 0.2 mm 6 mps 763 mmHg 90%
    01:00 +23°C° 0.2 mm 6 mps 763 mmHg 90%
    02:00 +22°C° 0.1 mm 6 mps 763 mmHg 88%
    03:00 +22°C° 0.1 mm 5 mps 763 mmHg 87%
    04:00 +22°C° 0.1 mm 5 mps 763 mmHg 86%
    05:00 +22°C° 0.1 mm 5 mps 763 mmHg 86%
    06:00 +22°C° 0.1 mm 5 mps 763 mmHg 86%
    07:00 +21°C° 0.1 mm 5 mps 763 mmHg 86%
    08:00 +23°C° 0 mm 5 mps 763 mmHg 78%
    09:00 +26°C° 0 mm 5 mps 764 mmHg 70%
    10:00 +28°C° 0 mm 6 mps 764 mmHg 62%
    11:00 +28°C° 0 mm 5 mps 764 mmHg 59%
    12:00 +29°C° 0 mm 5 mps 763 mmHg 56%
    13:00 +29°C° 0 mm 5 mps 763 mmHg 53%
    14:00 +29°C° 0 mm 5 mps 763 mmHg 55%
    15:00 +28°C° 0 mm 5 mps 762 mmHg 56%
    16:00 +28°C° 0 mm 4 mps 762 mmHg 58%
    17:00 +26°C° 0 mm 4 mps 762 mmHg 64%
    18:00 +25°C° 0 mm 4 mps 762 mmHg 71%
    19:00 +22°C° 0 mm 4 mps 763 mmHg 77%
    20:00 +22°C° 0 mm 3 mps 763 mmHg 80%
    21:00 +21°C° 0 mm 3 mps 763 mmHg 82%
    22:00 +21°C° 0 mm 3 mps 763 mmHg 85%
    23:00 +21°C° 0 mm 3 mps 763 mmHg 86%

    24 August, Saturday

    Time Temperature Precipitation Wind Pressure Humidity
    00:00 +21°C° 0 mm 3 mps 763 mmHg 87%
    01:00 +20°C° 0 mm 3 mps 763 mmHg 88%
    02:00 +20°C° 0 mm 3 mps 762 mmHg 89%
    03:00 +20°C° 0 mm 3 mps 762 mmHg 89%
    04:00 +20°C° 0 mm 3 mps 762 mmHg 90%
    05:00 +20°C° 0 mm 3 mps 762 mmHg 89%
    06:00 +20°C° 0 mm 3 mps 762 mmHg 89%
    07:00 +20°C° 0 mm 3 mps 763 mmHg 88%
    08:00 +22°C° 0 mm 3 mps 763 mmHg 81%
    09:00 +25°C° 0 mm 3 mps 763 mmHg 75%
    10:00 +27°C° 0 mm 4 mps 764 mmHg 68%
    11:00 +27°C° 0.1 mm 4 mps 763 mmHg 69%
    12:00 +28°C° 0.1 mm 4 mps 763 mmHg 69%
    13:00 +28°C° 0.1 mm 5 mps 763 mmHg 69%
    14:00 +28°C° 0.1 mm 4 mps 763 mmHg 69%
    15:00 +28°C° 0.1 mm 4 mps 762 mmHg 70%
    16:00 +28°C° 0.1 mm 4 mps 762 mmHg 70%
    17:00 +27°C° 0 mm 4 mps 762 mmHg 75%
    18:00 +25°C° 0 mm 4 mps 763 mmHg 80%
    19:00 +23°C° 0 mm 4 mps 763 mmHg 85%
    20:00 +23°C° 0 mm 4 mps 763 mmHg 86%
    21:00 +23°C° 0 mm 4 mps 764 mmHg 87%
    22:00 +22°C° 0 mm 4 mps 764 mmHg 88%
    23:00 +22°C° 0.1 mm 4 mps 764 mmHg 89%

    25 August, Sunday

    Time Temperature Precipitation Wind Pressure Humidity
    00:00 +22°C° 0.1 mm 4 mps 764 mmHg 89%
    01:00 +22°C° 0.1 mm 4 mps 763 mmHg 90%
    02:00 +22°C° 0.1 mm 4 mps 763 mmHg 90%
    03:00 +22°C° 0.1 mm 4 mps 763 mmHg 90%
    04:00 +22°C° 0.1 mm 4 mps 762 mmHg 90%
    05:00 +22°C° 0.1 mm 4 mps 763 mmHg 89%
    06:00 +22°C° 0.1 mm 4 mps 763 mmHg 89%
    07:00 +22°C° 0.1 mm 4 mps 763 mmHg 89%
    08:00 +25°C° 0.1 mm 4 mps 763 mmHg 82%
    09:00 +27°C° 0.1 mm 4 mps 764 mmHg 76%
    10:00 +28°C° 0.1 mm 4 mps 764 mmHg 69%
    11:00 +29°C° 0.1 mm 5 mps 764 mmHg 66%
    12:00 +29°C° 0.1 mm 5 mps 763 mmHg 64%
    13:00 +30°C° 0.1 mm 6 mps 763 mmHg 61%
    14:00 +29°C° 0.2 mm 6 mps 763 mmHg 64%
    15:00 +29°C° 0.2 mm 6 mps 763 mmHg 68%
    16:00 +28°C° 0.2 mm 6 mps 762 mmHg 71%
    17:00 +27°C° 0.1 mm 6 mps 763 mmHg 76%
    18:00 +26°C° 0.1 mm 6 mps 763 mmHg 82%
    19:00 +23°C° 0.1 mm 5 mps 763 mmHg 87%
    20:00 +23°C° 0.3 mm 5 mps 764 mmHg 87%
    21:00 +23°C° 0.3 mm 5 mps 764 mmHg 88%
    22:00 +23°C° 0.3 mm 5 mps 764 mmHg 89%
    23:00 +23°C° 0.3 mm 5 mps 764 mmHg 89%

    26 August, Monday

    Time Temperature Precipitation Wind Pressure Humidity
    00:00 +22°C° 0.3 mm 5 mps 764 mmHg 89%
    01:00 +22°C° 0.3 mm 5 mps 763 mmHg 90%
    02:00 +22°C° 0.1 mm 5 mps 763 mmHg 90%
    03:00 +22°C° 0.1 mm 5 mps 763 mmHg 90%
    04:00 +22°C° 0.1 mm 5 mps 762 mmHg 90%
    05:00 +22°C° 0.1 mm 5 mps 763 mmHg 90%
    06:00 +22°C° 0.1 mm 5 mps 763 mmHg 91%
    07:00 +22°C° 0.1 mm 5 mps 763 mmHg 91%
    08:00 +25°C° 0.1 mm 5 mps 763 mmHg 83%
    09:00 +26°C° 0.1 mm 6 mps 764 mmHg 76%
    10:00 +28°C° 0.1 mm 6 mps 764 mmHg 68%
    11:00 +28°C° 0 mm 6 mps 764 mmHg 65%
    12:00 +29°C° 0 mm 6 mps 764 mmHg 62%
    13:00 +29°C° 0 mm 6 mps 763 mmHg 59%
    14:00 +29°C° 0 mm 6 mps 763 mmHg 61%
    15:00 +28°C° 0 mm 6 mps 763 mmHg 63%
    16:00 +28°C° 0 mm 6 mps 762 mmHg 65%
    17:00 +27°C° 0 mm 5 mps 763 mmHg 70%
    18:00 +25°C° 0 mm 5 mps 763 mmHg 75%
    19:00 +23°C° 0 mm 5 mps 763 mmHg 80%
    20:00 +23°C° 0 mm 5 mps 763 mmHg 82%
    21:00 +22°C° 0 mm 5 mps 764 mmHg 83%
    22:00 +22°C° 0 mm 5 mps 764 mmHg 85%
    23:00 +22°C° 0 mm 5 mps 764 mmHg 85%
    Show more